Location: Aurora Center
(43.5271°N, 98.5894°W)
Time: 01:54:37
(UTC-05:00)

BlueWalker 3 - Pass Details

Date: 23 June 2024
Orbit: 480 x 492 km, 53.2° (Epoch: 15 July)

Event Time Altitude Azimuth Distance (km) Brightness Sun altitude
Rises 00:37:39 0° 297° (WNW) 2,539 6.1 -21.7°
Reaches altitude 10° 00:40:20 10° 317° (NW) 1,658 5.4 -21.8°
Maximum altitude 00:43:00 18° 3° (N) 1,230 4.7 -21.9°
Drops below altitude 10° 00:45:40 10° 48° (NE) 1,657 4.9 -22.0°
Sets 00:48:21 0° 68° (ENE) 2,536 5.6 -22.1°
